Regional Weather Roundup
Issued by NWS

Home | Current Version | Previous Version | Text Only | Print | Product List | Glossary Off
Versions: 1 2 3 4 5 6 7 8 9 10 11 12 13 14 15 16 17 18 19 20 21 22 23 24 25 26 27 28 29 30 31 32 33 34 35 36 37 38 39 40 41 42 43 44 45 46 47 48 49 50

000
ASUS43 KMKX 230800
RWRWI

WISCONSIN REGIONAL WEATHER ROUNDUP
NATIONAL WEATHER SERVICE MILWAUKEE/SULLIVAN WI
300 AM CDT SAT SEP 23 2017

NOTE: "FAIR" INDICATES FEW OR NO CLOUDS BELOW 12,000 FEET WITH NO
SIGNIFICANT WEATHER AND/OR OBSTRUCTIONS TO VISIBILITY.

WIZ001-002-006>008-014>016-023>028-230900-
NORTHWEST WISCONSIN

CITY           SKY/WX    TMP DP  RH WIND       PRES   REMARKS
SUPERIOR ARPT  CLOUDY    61  61  99 CALM      29.80F
ASHLAND        CLOUDY    77  67  71 S17       29.85S
HAYWARD        CLOUDY    74  66  76 S7        29.91R
SIREN          CLOUDY    78  66  66 SW7       29.88R HX  80
CUMBERLAND     CLOUDY    73  64  73 SW7       29.91S
RICE LAKE      CLOUDY    73  65  77 SE6       29.92S
CHETEK           N/A     70  67  90 CALM      29.92R
LADYSMITH      PTCLDY    73  66  80 S5        29.96R
EAU CLAIRE     NOT AVBL
MENOMONIE      PTCLDY    76  65  69 S6        29.91R
NEW RICHMOND   CLEAR     75  65  69 S9        29.90R
OSCEOLA        CLOUDY    78  67  68 S10       29.90S HX  80
$$

WIZ003>005-009-010-017-018-230900-
NORTH CENTRAL WISCONSIN

CITY           SKY/WX    TMP DP  RH WIND       PRES   REMARKS
MANITOWISH WTR PTCLDY    64  64 100 S5        29.97
ARBOR VITAE    CLOUDY    72  68  87 S7        29.98R
WOODRUFF       CLOUDY    72  68  87 S7        29.98R
RHINELANDER    CLEAR     72  66  81 SW8       29.99R
EAGLE RIVER    CLEAR     66  65  99 CALM      29.98R
LAND O LAKES   CLEAR     65  64  94 CALM      29.99S
PHILLIPS       MOCLDY    72  68  85 S6        29.95R
TOMAHAWK       CLEAR     65  63  91 CALM      29.98R
MEDFORD        CLEAR     66  64  91 S6        29.97R
MERRILL        CLEAR     71  66  85 SE3       29.98R
$$

WIZ029-030-035-036-043>047-230900-
CENTRAL WISCONSIN

CITY           SKY/WX    TMP DP  RH WIND       PRES   REMARKS
WAUSAU         CLEAR     71  64  78 CALM      29.97S
MOSINEE        CLEAR     68  64  88 S7        29.99S
MARSHFIELD     CLEAR     70  63  78 S8        29.97R
STEVENS POINT  CLEAR     71  64  78 S7        29.99S
WAUPACA        CLEAR     67  66  96 CALM      29.99S
WAUTOMA        CLEAR     63  62  97 CALM      30.00S
WISC RAPIDS    CLEAR     72  65  78 S7        29.99S
CAMP DOUGLAS   NOT AVBL
$$

WIZ011>013-019>022-031-037>040-048>050-230900-
NORTHEAST WISCONSIN

CITY           SKY/WX    TMP DP  RH WIND       PRES   REMARKS
ANTIGO         CLEAR     66  64  91 S6        30.01S
SHAWANO        CLEAR     72  66  82 CALM      29.98R
OCONTO         CLEAR     64  63  97 SW3       29.97S
STURGEON BAY   CLEAR     72  65  78 S8        29.99R
GREEN BAY      CLEAR     68  67  96 S3        29.99S
MANITOWOC      CLEAR     75  65  70 SW7       30.00S
APPLETON       CLEAR     72  61  68 S9        29.99S
CLINTONVILLE   CLEAR     72  63  73 SW3       29.98S
OSHKOSH        CLEAR     71  64  78 S9        30.00S
$$

WIZ032>034-041-042-053>061-230900-
SOUTHWEST WISCONSIN

CITY           SKY/WX    TMP DP  RH WIND       PRES   REMARKS
LA CROSSE      CLEAR     77  67  71 S7        29.93S
SPARTA         CLEAR     76  65  68 S9        29.96S
VIROQUA        CLEAR     73  66  79 S7        30.00S
BOSCOBEL       CLEAR     71  65  81 CALM      29.98S
PRAIRIE DU CHI PTCLDY    76  62  61 CALM      29.97S
PLATTEVILLE    CLEAR     71  67  87 SE8       30.02S
$$

WIZ056-057-062-063-064-067-068-230900-
SOUTH CENTRAL WISCONSIN

CITY           SKY/WX    TMP DP  RH WIND       PRES   REMARKS
REEDSBURG      CLEAR     74  65  73 S7        29.98F
BARABOO/DELLS  CLEAR     72  62  71 SW6       30.00S
LONE ROCK      NOT AVBL
MINERAL POINT  CLEAR     70  68  94 S6        30.02F
MADISON        CLEAR     71  64  78 S3        30.01S
MIDDLETON      CLEAR     73  64  72 CALM      30.02S
WATERTOWN      CLEAR     69  65  86 CALM      30.02S
MONROE         CLEAR     70  63  78 S9        30.02F
JANESVILLE     CLEAR     70  63  78 CALM      30.01F
$$

WIZ051-052-058>065-066-070>072-230900-
SOUTHEAST WISCONSIN

CITY           SKY/WX    TMP DP  RH WIND       PRES   REMARKS
MILWAUKEE      CLEAR     75  67  76 SW6       30.02S
WAUKESHA       CLEAR     70  63  78 S3        30.04S
MILWAUKEE/TIMM CLEAR     72  63  73 CALM      30.03S
RACINE         CLEAR     74  67  78 SW6       30.03F
BURLINGTON     CLEAR     62  62 100 CALM      30.03S FOG
KENOSHA        CLEAR     70  65  84 SW6       30.02F
FOND DU LAC    CLEAR     68  63  84 S6        30.00F
SHEBOYGAN      CLEAR     67  66  97 S6        30.01S
WEST BEND        N/A     68  64  88 CALM      30.03S
JUNEAU         CLEAR     69  63  81 SE3       30.03S
$$

LSZ147-162-230900-
LAKE SUPERIOR

STATION/POSITION TIME  TEMP    WIND        PRES    WAVE
                       AIR SEA DIR/SP/G            HT/PER
                 (UTC) (F)     (DEG/KT/KT) (MB)    (FT/S)
W MID LAKE BUOY  0650   63 54  220/  4/  6 1009.6R   1/ 3
DEVILS ISLAND    0700   62      70/  4/  4 1009.8R
SAXON HARBOR     0740   80     200/ 12/ 22 1010.2R
$$

LMZ867-665-643>646-230900-
LAKE MICHIGAN

STATION/POSITION TIME  TEMP    WIND        PRES    WAVE
                       AIR SEA DIR/SP/G            HT/PER
                 (UTC) (F)     (DEG/KT/KT) (MB)    (FT/S)
S GREEN BAY BUOY 0730   70 67  210/  8/  8 1014.7S
N MID LAKE BUOY  0650   69 66  180/ 12/ 12 1015.4F   2/ 4
NORTHPORT PIER   0740   69     140/  4/  5 1014.9R
KEWAUNEE LAKESHO 0730   73     230/  5/  9 1014.6R
SHEBOYGAN LAKESH 0700   72     190/  6/  7 1015.6F
PORT WASHINGTON  0740   74     260/  4/  6 1016.9F
ATWATER BUOY     0609   71 63  180/  8/  8 1016.5F
MILWAUKEE LAKESH 0730   78     220/ 11/ 12   N/A
S MID LAKE BUOY  0650   74 70  160/ 10/ 10 1016.7F   0
KENOSHA   LAKESH 0700   78     220/  5/  8 1016.3
$$

TC  - TEMPERATURE IN CELSIUS
VSB - VISIBILITY IN STATUTE MILES
WCI - WIND CHILL INDEX
HX  - HEAT INDEX





USA.gov is the U.S. government's official web portal to all federal, state and local government web resources and services.